Waarnemingen

Advertentie
Mijn weer
Fehmarn, Duitsland (10055): temperatuur & dauwpunt: 12.06.2018 03:00:00 - 18.06.2018 03:00:00 (CEST)Fehmarn, Duitsland (10055): temperatuur 5cm & temperatuur -5cm: 12.06.2018 03:00:00 - 18.06.2018 03:00:00 (CEST)Fehmarn, Duitsland (10055): temperatuur -20cm & temperatuur -100cm: 12.06.2018 03:00:00 - 18.06.2018 03:00:00 (CEST)Fehmarn, Duitsland (10055): windsnelheid & windstoten: 12.06.2018 03:00:00 - 18.06.2018 03:00:00 (CEST)Fehmarn, Duitsland (10055): windrichting: 12.06.2018 03:00:00 - 18.06.2018 03:00:00 (CEST)Fehmarn, Duitsland (10055): luchtdruk: 12.06.2018 03:00:00 - 18.06.2018 03:00:00 (CEST)Fehmarn, Duitsland (10055): zicht: 12.06.2018 03:00:00 - 18.06.2018 03:00:00 (CEST)Fehmarn, Duitsland (10055): Zonneschijnduur: 12.06.2018 03:00:00 - 18.06.2018 03:00:00 (CEST)Fehmarn, Duitsland (10055): neerslag: 12.06.2018 03:00:00 - 18.06.2018 03:00:00 (CEST)
Datum & Tijd tt [°C] td [°C] tt 5cm [°C] tt -5cm [°C] tt -20cm [°C] tt -100cm [°C] ff [km/u] ff [kn] fx [km/u] fx [kn] dd ppp [hPa] vv [km] sd [min] rr [mm]
18.06.2018 03:00:00 15,7 11,5 15,0 16,4 18,7 17,6 20 11 27 15 WZW 1017,9 30 0 0,0
18.06.2018 02:00:00 15,7 10,9 14,3 16,4 19,1 17,6 17 9 26 14 WZW 1017,7 39 0 0,0
18.06.2018 01:00:00 16,0 10,7 14,5 17,0 19,4 17,6 18 10 29 16 WZW 1017,4 42 0 0,0
18.06.2018 00:00:00 16,9 10,8 16,2 17,8 19,7 17,6 25 14 34 19 W 1017,1 47 0 0,0
17.06.2018 23:00:00 17,1 11,1 16,7 18,3 20,0 17,6 27 14 40 22 W 1016,9 46 0 0,0
17.06.2018 22:00:00 17,6 10,1 17,1 19,0 20,3 17,6 27 15 37 20 W 1016,8 54 0 0,0
17.06.2018 21:00:00 17,9 9,4 17,8 20,2 20,5 17,6 29 15 34 18 W 1016,3 59 10 0,0
17.06.2018 20:00:00 18,2 11,2 18,6 21,3 20,6 17,6 28 15 35 19 W 1016,0 44 20 0,0
17.06.2018 19:00:00 18,7 12,0 19,9 22,4 20,6 17,6 27 14 34 18 W 1015,6 20 34 0,0
17.06.2018 18:00:00 18,7 11,4 20,5 22,7 20,7 17,6 29 15 36 19 W 1015,6 17 20 0,0
17.06.2018 17:00:00 17,4 13,6 17,8 21,5 20,9 17,6 31 17 48 26 W 1015,4 23 0 0,0
17.06.2018 16:00:00 18,5 13,7 19,0 24,6 20,7 17,6 29 16 37 20 W 1014,5 28 17 0,0
17.06.2018 15:00:00 19,7 13,7 22,8 26,8 20,2 17,6 26 14 33 18 W 1014,2 16 41 0,0
17.06.2018 14:00:00 19,9 12,1 24,2 26,2 19,8 17,6 21 11 36 19 ZW 1013,9 10 38 0,0
17.06.2018 13:00:00 19,4 11,9 21,8 23,7 19,4 17,6 20 11 35 19 ZW 1013,7 23 23 0,0
17.06.2018 12:00:00 19,5 12,1 23,7 24,3 19,0 17,6 24 13 35 19 WZW 1013,6 12 60 0,0
17.06.2018 11:00:00 18,2 12,3 21,0 22,1 18,6 17,6 26 14 39 21 WZW 1013,5 18 51 0,0
17.06.2018 10:00:00 18,2 12,9 19,9 21,3 18,4 17,6 22 12 32 18 WZW 1013,4 11 59 0,0
17.06.2018 09:00:00 17,5 14,0 18,9 19,6 18,2 17,6 16 9 23 13 WZW 1013,2 10 28 0,0
17.06.2018 08:00:00 16,4 14,9 16,0 17,7 18,3 17,6 15 8 18 10 WZW 1012,9 7 0 0,0
17.06.2018 07:00:00 15,8 14,0 15,6 17,3 18,4 17,6 6 4 16 9 WZW 1012,9 15 3 0,0
17.06.2018 06:00:00 15,9 14,6 15,3 16,8 18,6 17,6 8 4 16 9 W 1013,0 7 0 0,5
17.06.2018 05:00:00 16,2 14,0 15,2 16,9 18,7 17,5 15 8 31 17 W 1013,2 13 0 0,3
17.06.2018 04:00:00 17,3 16,3 16,7 17,4 18,9 17,5 15 8 20 11 W 1012,8 4,7 0 0,7
17.06.2018 03:00:00 17,2 16,4 16,4 17,1 19,1 17,5 13 7 16 9 WZW 1013,0 4,1 0 0,3
17.06.2018 02:00:00 15,5 14,5 14,7 17,0 19,4 17,5 7 4 12 6 Z 1012,6 7 0 0,0
17.06.2018 01:00:00 15,2 14,3 14,4 17,3 19,7 17,5 9 5 14 8 ZO 1013,0 7 0 0,0
17.06.2018 00:00:00 16,0 15,4 14,4 17,9 20,0 17,5 5 3 6 3 ONO 1013,3 2,1 0 0,0
16.06.2018 23:00:00 17,6 15,6 15,4 18,5 20,3 17,5 4 2 14 7 W 1013,3 16 0 0,0
16.06.2018 22:00:00 18,0 15,7 16,7 19,8 20,6 17,5 5 3 10 5 ZZW 1013,2 18 0 0,0
16.06.2018 21:00:00 18,3 16,5 17,9 20,6 20,7 17,5 8 4 11 6 ZO 1013,2 17 0 0,0
16.06.2018 20:00:00 18,9 15,9 19,1 21,5 20,9 17,5 10 5 19 10 O 1013,0 21 13 0,0
16.06.2018 19:00:00 18,1 15,6 18,0 21,2 21,1 17,5 13 7 23 12 OZO 1012,8 25 0 0,0
16.06.2018 18:00:00 17,4 15,5 17,7 21,3 21,4 17,5 17 9 25 14 O 1013,1 26 0 0,1
16.06.2018 17:00:00 16,0 14,9 16,4 22,1 21,5 17,5 11 6 49 26 OZO 1014,2 12 0 4,1
16.06.2018 16:00:00 20,5 14,9 22,2 25,4 21,4 17,5 19 10 32 17 OZO 1014,0 20 0 0,0
16.06.2018 15:00:00 19,3 14,8 19,9 25,7 21,1 17,5 21 11 33 18 O 1014,2 25 2 0,0
16.06.2018 14:00:00 20,3 15,1 23,2 26,3 20,8 17,5 25 14 37 20 O 1014,5 10 0 0,0
16.06.2018 13:00:00 20,7 14,3 24,1 26,6 20,3 17,5 22 12 32 18 OZO 1015,6 25 32 0,0
16.06.2018 12:00:00 20,2 14,2 23,9 25,3 19,9 17,5 19 11 30 16 OZO 1016,0 17 41 0,0
16.06.2018 11:00:00 19,3 13,1 22,8 23,6 19,6 17,5 21 11 29 16 OZO 1016,1 13 45 0,0
16.06.2018 10:00:00 18,5 12,4 20,9 21,6 19,4 17,4 16 9 27 15 OZO 1016,5 16 9 0,0
16.06.2018 09:00:00 18,5 13,9 20,6 20,2 19,4 17,4 18 10 25 14 O 1016,6 11 25 0,0
16.06.2018 08:00:00 16,3 13,2 16,3 18,6 19,5 17,4 7 4 13 7 O 1016,8 32 0 0,0
16.06.2018 07:00:00 16,0 13,2 15,9 18,4 19,7 17,4 10 5 12 7 O 1017,1 31 0 0,0
16.06.2018 06:00:00 14,4 12,0 14,2 18,3 19,9 17,4 8 4 9 5 O 1017,4 29 0 0,0
16.06.2018 05:00:00 14,4 11,7 14,2 18,4 20,1 17,4 7 4 11 6 OZO 1017,4 25 0 0,0
16.06.2018 04:00:00 13,7 11,5 13,4 18,3 20,4 17,4 9 5 11 6 OZO 1017,4 25 0 0,0
16.06.2018 03:00:00 12,6 10,4 11,2 18,1 20,8 17,4 8 5 10 5 OZO 1017,6 24 0 0,0
16.06.2018 02:00:00 11,9 9,6 10,4 18,6 21,2 17,4 8 4 10 5 ZO 1017,6 25 0 0,0
16.06.2018 01:00:00 12,2 8,2 10,1 19,3 21,7 17,4 5 3 12 7 ZO 1017,6 34 0 0,0
16.06.2018 00:00:00 13,8 8,5 11,4 20,1 22,2 17,4 5 3 7 4 OZO 1017,6 42 0 0,0
15.06.2018 23:00:00 13,2 8,8 11,1 21,2 22,6 17,4 8 4 9 5 ZO 1017,8 33 0 0,0
15.06.2018 22:00:00 17,3 9,4 15,1 22,8 22,9 17,4 6 3 7 4 NW 1017,7 40 2 0,0
15.06.2018 21:00:00 18,7 6,4 18,5 25,0 23,1 17,4 3 2 5 3 NW 1017,7 46 48 0,0
15.06.2018 20:00:00 19,3 6,4 20,2 26,7 23,2 17,4 4 2 10 5 WNW 1017,7 48 58 0,0
15.06.2018 19:00:00 19,1 5,9 22,2 28,3 23,1 17,4 6 3 10 5 ONO 1017,6 34 60 0,0
15.06.2018 18:00:00 19,1 7,3 22,5 29,7 22,8 17,4 6 4 12 6 NO 1017,7 14 60 0,0
15.06.2018 17:00:00 18,5 8,1 23,0 30,1 22,3 17,4 7 4 13 7 N 1017,9 15 60 0,0
15.06.2018 16:00:00 18,9 9,5 23,7 30,6 21,8 17,4 7 4 11 6 N 1017,9 29 60 0,0
15.06.2018 15:00:00 18,7 9,9 24,3 30,3 21,1 17,4 7 4 12 7 WNW 1018,0 15 60 0,0
15.06.2018 14:00:00 17,7 10,1 23,2 29,2 20,4 17,4 10 6 18 10 W 1018,0 24 60 0,0
15.06.2018 13:00:00 17,6 10,3 22,7 27,6 19,8 17,4 12 7 17 9 W 1018,0 13 60 0,0
15.06.2018 12:00:00 17,2 10,3 22,0 25,7 19,2 17,4 15 8 23 12 W 1017,7 18 60 0,0
15.06.2018 11:00:00 17,1 10,4 21,5 23,7 18,8 17,4 18 10 23 13 W 1017,5 14 60 0,0
15.06.2018 10:00:00 16,4 10,0 20,8 21,7 18,5 17,4 16 8 24 13 W 1017,0 7 60 0,0
15.06.2018 09:00:00 16,0 9,9 18,7 19,5 18,4 17,4 21 11 29 15 WNW 1016,6 7 60 0,0
15.06.2018 08:00:00 15,8 10,7 17,4 17,8 18,5 17,4 24 13 30 16 WNW 1015,9 9 60 0,0
15.06.2018 07:00:00 15,6 11,4 16,0 16,7 18,7 17,4 27 15 34 18 WNW 1015,4 8 43 0,0
15.06.2018 06:00:00 15,4 11,5 14,5 16,5 19,0 17,4 26 14 30 16 WNW 1014,9 17 0 0,0
15.06.2018 05:00:00 15,3 12,1 14,5 16,8 19,2 17,4 24 13 32 17 W 1014,4 19 0 0,0
15.06.2018 04:00:00 15,6 12,7 14,6 17,2 19,5 17,4 23 12 33 18 W 1014,3 16 0 0,0
15.06.2018 03:00:00 15,9 13,1 15,4 17,7 19,8 17,4 27 15 36 20 W 1014,1 16 0 0,0
15.06.2018 02:00:00 16,0 14,0 15,8 18,2 20,1 17,4 28 15 40 22 W 1013,7 11 0 0,0
15.06.2018 01:00:00 16,0 14,0 15,8 18,5 20,4 17,4 31 17 43 23 WZW 1013,5 11 0 0,0
15.06.2018 00:00:00 16,4 13,1 16,0 18,9 20,8 17,4 24 13 39 21 ZW 1013,2 14 0 0,0
14.06.2018 23:00:00 16,1 13,4 15,3 19,4 21,2 17,4 20 11 35 19 ZW 1013,0 12 0 0,0
14.06.2018 22:00:00 16,1 13,8 15,2 20,0 21,7 17,4 18 10 35 19 ZW 1012,9 10 0 0,0
14.06.2018 21:00:00 16,3 14,1 15,3 20,9 22,0 17,4 32 17 56 30 W 1012,8 10 0 0,9
14.06.2018 20:00:00 17,0 14,2 15,7 23,5 22,2 17,4 43 23 55 30 W 1012,3 6 0 0,1
14.06.2018 19:00:00 20,4 10,8 21,3 25,7 22,2 17,4 17 9 30 16 ZW 1011,6 18 0 0,0
14.06.2018 18:00:00 21,4 9,6 24,6 27,2 22,1 17,4 17 9 31 17 ZW 1011,6 25 4 0,0
14.06.2018 17:00:00 21,6 10,1 24,5 28,0 21,8 17,4 11 6 29 15 ZZW 1011,8 25 10 0,0
14.06.2018 16:00:00 21,6 9,4 24,9 29,5 21,3 17,4 15 8 31 17 ZZW 1011,9 27 52 0,0
14.06.2018 15:00:00 21,3 9,0 26,6 29,4 20,8 17,4 22 12 33 18 ZW 1012,4 17 44 0,0
14.06.2018 14:00:00 20,7 10,5 26,7 29,0 20,2 17,4 20 11 32 17 ZW 1012,9 12 60 0,0
14.06.2018 13:00:00 20,4 11,2 26,4 27,4 19,6 17,5 20 11 35 19 ZW 1013,2 17 58 0,0
14.06.2018 12:00:00 18,4 9,8 23,3 25,4 19,1 17,5 19 11 37 20 ZW 1013,5 18 38 0,0
14.06.2018 11:00:00 18,0 10,0 23,3 23,9 18,7 17,5 18 10 32 18 ZW 1013,8 22 55 0,0
14.06.2018 10:00:00 16,9 9,5 21,9 22,3 18,4 17,5 18 10 33 18 ZZW 1013,9 13 60 0,0
14.06.2018 09:00:00 16,0 10,9 19,7 19,7 18,2 17,5 17 9 32 17 ZW 1014,0 23 43 0,0
14.06.2018 08:00:00 14,6 10,7 16,6 18,1 18,3 17,5 18 10 30 16 ZW 1014,1 26 52 0,0
14.06.2018 07:00:00 14,0 9,9 15,9 17,0 18,4 17,5 14 8 27 14 ZZW 1014,3 30 10 0,0
14.06.2018 06:00:00 14,1 9,6 14,0 16,7 18,5 17,5 14 7 25 13 ZW 1014,3 45 0 0,0
14.06.2018 05:00:00 14,0 9,3 13,7 16,7 18,7 17,5 21 11 30 16 W 1014,3 61 0 0,0
14.06.2018 04:00:00 14,2 8,5 14,0 16,8 18,9 17,5 23 12 38 21 W 1014,3 64 0 0,0
14.06.2018 03:00:00 14,0 8,4 13,3 17,0 19,2 17,5 29 15 40 22 W 1014,4 64 0 0,0
14.06.2018 02:00:00 14,6 8,2 14,4 17,6 19,4 17,5 28 15 37 20 W 1014,0 67 0 0,0
14.06.2018 01:00:00 14,9 7,6 14,7 17,9 19,6 17,5 26 14 39 21 W 1013,9 62 0 0,0
14.06.2018 00:00:00 15,1 9,0 14,9 18,3 19,9 17,5 31 17 39 21 WNW 1014,0 64 0 0,0
13.06.2018 23:00:00 15,3 8,4 15,2 18,7 20,2 17,5 31 17 40 22 WNW 1014,0 58 0 0,0
13.06.2018 22:00:00 15,8 9,8 15,6 19,3 20,4 17,5 34 19 44 24 WNW 1013,5 55 0 0,0
13.06.2018 21:00:00 15,8 9,7 15,9 20,1 20,6 17,6 29 16 44 24 WNW 1013,0 53 0 0,0
13.06.2018 20:00:00 15,9 9,5 16,0 21,2 20,8 17,6 31 17 50 27 W 1012,7 49 28 0,0
13.06.2018 19:00:00 16,2 10,1 16,8 22,9 20,8 17,6 40 21 50 27 WNW 1012,4 10 42 0,0
13.06.2018 18:00:00 16,5 10,0 17,7 24,0 20,6 17,6 39 21 50 27 W 1011,9 7 59 0,0
13.06.2018 17:00:00 17,0 9,5 19,2 24,8 20,3 17,6 40 21 48 26 WNW 1011,8 4,0 60 0,0
13.06.2018 16:00:00 17,0 10,1 19,7 25,3 19,9 17,6 36 20 46 25 WNW 1011,5 6 60 0,0
13.06.2018 15:00:00 17,3 10,2 20,6 25,5 19,4 17,6 37 20 46 25 WNW 1011,1 5 60 0,0
13.06.2018 14:00:00 17,4 10,4 21,3 25,0 18,9 17,6 31 17 42 23 WNW 1011,0 12 60 0,0
13.06.2018 13:00:00 16,7 10,0 20,6 23,6 18,4 17,6 32 17 42 23 WNW 1011,2 13 60 0,0
13.06.2018 12:00:00 15,5 9,8 19,1 21,7 18,0 17,6 31 17 40 22 WNW 1011,0 10 60 0,0
13.06.2018 11:00:00 14,8 9,9 17,5 19,1 17,8 17,6 34 18 46 25 WNW 1010,8 20 5 0,0
13.06.2018 10:00:00 14,1 9,7 15,9 18,0 17,8 17,6 32 18 40 21 WNW 1010,7 18 1 0,0
13.06.2018 09:00:00 13,7 9,8 14,7 16,7 17,8 17,7 28 15 39 21 WNW 1010,5 27 0 0,0
13.06.2018 08:00:00 13,5 10,0 14,0 16,3 17,9 17,7 31 17 40 22 NW 1010,2 35 0 0,0
13.06.2018 07:00:00 13,3 10,3 13,4 16,2 18,0 17,7 31 17 45 24 NW 1009,8 36 0 0,0
13.06.2018 06:00:00 13,7 11,4 13,7 16,3 18,1 17,7 36 19 43 23 NW 1009,6 21 0 0,0
13.06.2018 05:00:00 13,9 11,2 13,8 16,4 18,2 17,7 29 16 34 18 WNW 1009,7 31 0 0,0
13.06.2018 04:00:00 13,8 10,8 13,7 16,5 18,4 17,7 26 14 33 18 WNW 1009,8 32 0 0,0
13.06.2018 03:00:00 13,9 11,4 13,9 16,8 18,5 17,7 27 14 34 18 NW 1009,9 30 0 0,0
13.06.2018 02:00:00 14,5 12,1 14,4 17,0 18,6 17,7 29 16 34 19 WNW 1009,7 26 0 0,0
13.06.2018 01:00:00 14,4 11,7 14,4 17,1 18,8 17,7 26 14 40 22 W 1010,0 29 0 0,0
13.06.2018 00:00:00 14,7 11,7 14,5 17,3 18,9 17,7 32 17 40 22 W 1009,6 39 0 0,0
12.06.2018 23:00:00 14,9 11,7 14,8 17,6 19,1 17,7 32 17 39 21 WNW 1009,8 42 0 0,0
12.06.2018 22:00:00 15,1 12,0 15,0 17,9 19,2 17,7 30 16 40 21 W 1009,8 34 0 0,0
12.06.2018 21:00:00 15,4 12,3 15,5 18,3 19,3 17,7 29 15 39 21 W 1009,6 40 0 0,0
12.06.2018 20:00:00 15,4 11,9 15,6 18,6 19,4 17,7 34 18 41 22 W 1009,5 52 0 0,0
12.06.2018 19:00:00 15,7 11,4 15,9 19,3 19,5 17,7 29 16 40 22 W 1009,6 46 0 0,0
12.06.2018 18:00:00 15,8 11,3 16,4 20,0 19,4 17,7 29 16 39 21 W 1009,9 36 1 0,0
12.06.2018 17:00:00 16,0 11,2 17,1 19,9 19,3 17,7 32 17 41 22 W 1010,1 19 0 0,0
12.06.2018 16:00:00 15,7 11,4 16,5 20,0 19,3 17,7 33 18 40 22 W 1010,1 34 0 0,0
12.06.2018 15:00:00 15,8 11,8 17,1 20,0 19,1 17,7 30 16 37 20 W 1010,1 27 0 0,0
12.06.2018 14:00:00 16,0 11,1 18,4 19,9 19,0 17,7 29 16 39 21 W 1010,0 19 0 0,0
12.06.2018 13:00:00 15,4 11,5 16,3 18,5 19,0 17,7 30 16 41 22 W 1010,0 45 0 0,0
12.06.2018 12:00:00 15,0 10,8 15,7 18,2 19,1 17,7 31 17 41 22 W 1009,7 36 0 0,0
12.06.2018 11:00:00 14,8 10,8 15,5 18,2 19,1 17,7 32 17 42 23 W 1009,5 35 0 0,0
12.06.2018 10:00:00 15,0 10,4 15,8 18,1 19,2 17,7 35 19 46 25 WNW 1009,3 41 0 0,0
12.06.2018 09:00:00 14,9 10,4 15,4 17,7 19,3 17,7 33 18 45 24 WNW 1009,1 42 0 0,0
12.06.2018 08:00:00 14,7 10,4 14,8 17,5 19,4 17,7 36 19 55 30 WNW 1008,9 45 0 0,0
12.06.2018 07:00:00 14,8 10,5 14,8 17,6 19,6 17,7 35 19 46 25 WNW 1008,6 46 0 0,0
12.06.2018 06:00:00 14,9 10,7 14,8 17,6 19,7 17,7 36 19 48 26 WNW 1008,6 46 0 0,0
12.06.2018 05:00:00 15,2 10,5 15,0 17,8 19,9 17,7 38 21 49 26 WNW 1008,5 47 0 0,0
12.06.2018 04:00:00 15,1 10,2 15,0 18,0 20,1 17,7 40 22 51 28 WNW 1008,6 55 0 0,0
12.06.2018 03:00:00 15,1 10,0 15,0 18,1 20,4 17,7 40 22 50 27 WNW 1008,7 59 0 0,0

tt = temperatuur
td = dauwpunt
tt 5cm = temperatuur 5cm
tt -5cm = temperatuur -5cm
tt -20cm = temperatuur -20cm
tt -100cm = temperatuur -100cm
ff = windsnelheid
fx = windstoten
dd = windrichting
ppp = luchtdruk
vv = zicht
sd = Zonneschijnduur
rr = neerslag

Weerstations in de omgeving